Weather History for Asheville, NC

Change the Weather History Date:

Friday, August 8, 2014

  Actual Average Record
Temperature  
Mean Temperature 69 °F 74 °F  
Max Temperature 74 °F 84 °F 94 °F (1980)
Min Temperature 64 °F 64 °F 49 °F (2004)
Degree Days  
Heating Degree Days 0 0  
Month to date heating degree days 0 0  
Since 1 June heating degree days 2 14  
Since 1 July heating degree days 2 0  
Cooling Degree Days 4 9  
Month to date cooling degree days 51 72  
Year to date cooling degree days 566 582  
Since 1 June cooling degree days 485 524  
Growing Degree Days 18 (Base 50)    
Moisture  
Dew Point 65 °F    
Average Humidity 86    
Maximum Humidity 93    
Minimum Humidity 79    
Precipitation  
Precipitation 0.63 in 0.15 in 1.00 in (1871)
Month to date precipitation 0.83 1.14  
Year to date precipitation 27.66 28.35  
Snow  
Snow 0.00 in 0.00 in 0.00 in ()
Month to date snowfall 0.0 0.0  
Since 1 June snowfall 0.0 0.0  
Since 1 July snowfall 0.0 0.0  
Snow Depth 0.00 in    
Sea Level Pressure  
Sea Level Pressure 30.11 in    
Wind  
Wind Speed 3 mph (SSE)    
Max Wind Speed 9 mph    
Max Gust Speed 14 mph    
Visibility 6 miles    
Events Rain    
T = Trace of Precipitation, MM = Missing Value Source: NWS Daily Summary

Daily Weather History Graph

Daily Weather History Graph

Search for Another Location

Airport:

Trip Planner

Search our weather history database for the weather conditions in past years. The results will help you decide how hot, cold, wet, or windy it might be!

Date:

Astronomy

Aug. 08, 2014 Rise Set
Actual Time 6:44 AM EDT 8:26 PM EDT
Civil Twilight 6:16 AM EDT 8:54 PM EDT
Nautical Twilight 5:43 AM EDT 9:27 PM EDT
Astronomical Twilight 5:08 AM EDT 10:02 PM EDT
Moon 6:36 PM EDT (8/8) 4:16 AM EDT (8/8)
Length of Visible Light 14h 37m
Length of Day
13h 42m
Waxing Gibbous, 93% of the Moon is Illuminated
Aug 8
Waxing Gibbous
Aug 10
Full
Aug 17
Last Quarter
Aug 25
New
Sep 2
First Quarter

Hourly Weather History & Observations

Time (EDT) Temp. Dew Point Humidity Pressure Visibility Wind Dir Wind Speed Gust Speed Precip Events Conditions
12:54 AM 66.9 °F 64.0 °F 90% 30.04 in 8.0 mi Calm Calm - N/A   Clear
1:54 AM 66.9 °F 64.0 °F 90% 30.04 in 6.0 mi Calm Calm - N/A   Clear
2:54 AM 64.9 °F 63.0 °F 93% 30.03 in 6.0 mi Calm Calm - N/A   Clear
3:54 AM 66.0 °F 63.0 °F 90% 30.01 in 6.0 mi Calm Calm - N/A   Mostly Cloudy
4:54 AM 64.0 °F 62.1 °F 93% 30.04 in 6.0 mi Calm Calm - N/A   Scattered Clouds
5:54 AM 64.9 °F 63.0 °F 93% 30.04 in 5.0 mi Calm Calm - N/A   Clear
6:54 AM 64.0 °F 63.0 °F 96% 30.07 in 5.0 mi Calm Calm - N/A   Partly Cloudy
7:54 AM 64.9 °F 63.0 °F 93% 30.09 in 7.0 mi Calm Calm - N/A   Overcast
8:54 AM 66.0 °F 64.0 °F 93% 30.12 in 2.5 mi Calm Calm - 0.02 in Rain Light Rain
9:37 AM 66.0 °F 64.0 °F 93% 30.20 in 2.5 mi North 4.6 mph - 0.07 in Rain Heavy Rain
9:54 AM 66.9 °F 64.0 °F 90% 30.13 in 2.5 mi Calm Calm - 0.13 in Rain Rain
10:01 AM 66.2 °F 64.4 °F 94% 30.20 in 2.5 mi Calm Calm - N/A Rain Rain
10:11 AM 66.0 °F 64.9 °F 96% 30.21 in 1.5 mi SSW 5.8 mph - 0.06 in Rain Heavy Rain
10:17 AM 66.0 °F 64.9 °F 96% 30.20 in 0.8 mi Calm Calm - 0.12 in Rain Heavy Rain
10:30 AM 66.0 °F 64.9 °F 96% 30.20 in 1.5 mi SE 5.8 mph - 0.27 in Rain Heavy Rain
10:36 AM 66.0 °F 64.9 °F 96% 30.20 in 2.0 mi SSE 4.6 mph - 0.29 in Rain Rain
10:54 AM 66.0 °F 64.9 °F 96% 30.14 in 2.0 mi Calm Calm - 0.33 in Rain Light Rain
11:09 AM 66.9 °F 64.9 °F 93% 30.21 in 2.0 mi SSE 4.6 mph - 0.01 in Rain Light Rain
11:52 AM 68.0 °F 66.2 °F 94% 30.20 in 2.0 mi SE 3.5 mph - 0.04 in Rain Rain
11:54 AM 68.0 °F 66.0 °F 93% 30.13 in 2.0 mi SE 3.5 mph - 0.04 in Rain Rain
12:04 PM 68.0 °F 66.0 °F 93% 30.20 in 2.0 mi SSE 4.6 mph - 0.02 in Rain Rain
12:54 PM 69.1 °F 66.9 °F 93% 30.13 in 2.0 mi Calm Calm - 0.06 in Rain Light Rain
1:00 PM 69.1 °F 66.0 °F 90% 30.19 in 4.0 mi SSW 3.5 mph - 0.01 in Rain Light Rain
1:06 PM 70.0 °F 66.9 °F 90% 30.19 in 2.5 mi South 4.6 mph - 0.01 in Rain Light Rain
1:22 PM 69.1 °F 66.9 °F 93% 30.19 in 2.5 mi South 4.6 mph - 0.03 in Rain Light Rain
1:54 PM 70.0 °F 66.9 °F 90% 30.11 in 2.5 mi South 8.1 mph - 0.04 in Rain Light Rain
2:39 PM 72.0 °F 68.0 °F 87% 30.16 in 7.0 mi South 6.9 mph - 0.01 in   Mostly Cloudy
2:54 PM 72.0 °F 66.9 °F 84% 30.09 in 5.0 mi South 6.9 mph - 0.01 in   Haze
3:06 PM 72.0 °F 66.0 °F 81% 30.15 in 5.0 mi South 8.1 mph - N/A   Haze
3:54 PM 72.0 °F 66.9 °F 84% 30.06 in 5.0 mi SE 4.6 mph - 0.00 in Rain Light Rain
4:16 PM 72.0 °F 66.9 °F 84% 30.13 in 10.0 mi SSE 8.1 mph - 0.00 in Rain Light Rain
4:54 PM 73.9 °F 66.9 °F 79% 30.05 in 10.0 mi ESE 5.8 mph - 0.00 in   Overcast
5:18 PM 73.0 °F 66.0 °F 79% 30.12 in 10.0 mi South 5.8 mph - N/A   Mostly Cloudy
5:54 PM 73.0 °F 66.0 °F 79% 30.05 in 10.0 mi SSE 6.9 mph - N/A   Mostly Cloudy
6:22 PM 73.4 °F 66.2 °F 78% 30.12 in 10.0 mi South 5.8 mph - N/A   Scattered Clouds
6:54 PM 72.0 °F 66.0 °F 81% 30.04 in 10.0 mi SSE 6.9 mph - N/A   Mostly Cloudy
7:50 PM 71.6 °F 66.2 °F 83% 30.11 in 10.0 mi SSE 4.6 mph - N/A   Scattered Clouds
7:54 PM 71.1 °F 66.0 °F 84% 30.04 in 10.0 mi SSE 4.6 mph - N/A   Mostly Cloudy
8:13 PM 71.1 °F 66.0 °F 84% 30.11 in 10.0 mi SE 5.8 mph - N/A   Mostly Cloudy
8:54 PM 70.0 °F 64.9 °F 84% 30.06 in 10.0 mi SE 5.8 mph - N/A   Overcast
9:54 PM 69.1 °F 66.0 °F 90% 30.09 in 10.0 mi South 5.8 mph - N/A   Overcast
10:35 PM 68.0 °F 66.0 °F 93% 30.16 in 7.0 mi South 4.6 mph - N/A   Overcast
10:54 PM 68.0 °F 66.0 °F 93% 30.09 in 7.0 mi South 4.6 mph - N/A   Mostly Cloudy
11:54 PM 68.0 °F 64.9 °F 90% 30.09 in 10.0 mi Calm Calm - 0.00 in   Mostly Cloudy